Погода в Харгане

Россия / Республика Бурятия     51°30′20″N   106°51′06″E
темп.,
°C
ветер,
м/с
пор.,
м/с
влажн.,
%
обл.,
%
осадки,
мм/ч
давл.,
гПа
погр.,
м
17 апреля, сб
сб1723:00+1з004138 0.0 101610
02:000з11467 0.0 101510
05:00−1юз11525 0.0 101410
08:00+3ююз234696 0.0 1013260
11:00+9ююз34365 0.0 1010631
14:00+13ююз33295 0.0 1006960
17:00+14ююз23231 0.0 10031091
20:00+9ссз223547 0.0 100211
18 апреля, вс
вс1823:00+7сз48447 0.0 1004132
02:00+1сз142278100 0.2 1011935
05:00−2ссз101672100 0.1 10171100
08:00−2сз8146498 0.2 10221227
11:00+1ссз7114678 0.0 10231597
14:00+2ссз68315 0.0 10221669
17:00+2с34270 0.0 10211561
20:00−1ссв2237100 0.0 102226
19 апреля, пн
пн1923:00−3св114098 0.0 102310
02:00−5всв004024 0.0 102210
05:00−5всв00415 0.0 102110
08:00−2вюв1130100 0.0 1020240
11:00+6ю46235 0.0 1015889
14:00+10юз57290 0.0 10101092
17:00+13ююз46286 0.0 10061035
20:00+8вюв014040 0.0 100410
20 апреля, вт
вт2023:00+5сз215097 0.0 100510
02:00+4сз575630 0.0 1007120
05:000сз3137796 0.0 1012721
08:00+1ссз4759100 0.0 1013817
11:00+4ссз444248 0.0 1013981
14:00+8ссз22354 0.0 10101276
17:00+9с22365 0.0 10081278
20:00+3ссз34555 0.0 1009100
21 апреля, ср
ср2123:00−1сз235595 0.0 101175
02:00−3сз35647 0.0 1013162
05:00−5сз348112 0.0 1014122
08:00−1ссз475745 0.0 1015871
11:00+3ссз784792 0.0 10141254
14:00+3ссз6746100 0.0 10141372
17:000ссз71050100 0.0 10181308
20:00−3ссз51260100 0.8 10221031